Powrót do katalogu

NUSAT-44 MARIA MITCHELL

AktywnyNaukaSSO
NORAD 59122·PAYLOAD·🇦🇷 Argentina

Wystrzelony Mar 4, 2024 z Vandenberg Space Force Base

Loading…

Następne Przeloty (najbliższe 24 godziny)

TLE

ŚwieżeSource: Space-Track

Epoka: Sep 14, 2026, 22:39 UTC

1 59122U 24043AA  26257.94408505  .00010329  00000-0  36129-3 0  9998
2 59122  97.5575  39.6341 0004005 277.3113  82.7672 15.29717877140997

Śledź NUSAT-44 MARIA MITCHELL w czasie rzeczywistym z AllMySat

Download on the App Store